Location: Bonac
(42.8765°N, 0.9753°E)
Time: 18:57:55
(UTC+00:00)

Cosmos 1953 - Pass Details

Date: 14 April 2026
Orbit: 471 x 483 km, 82.5° (Epoch: 12 May)

Event Time Altitude Azimuth Distance (km) Brightness Sun altitude
Rises 19:49:35 0° 222° (SW) 2,508 5.9 -13.2°
Reaches altitude 10° 19:52:09 10° 242° (WSW) 1,638 5.2 -13.6°
Maximum altitude 19:54:41 18° 287° (WNW) 1,226 5.2 -14.1°
Drops below altitude 10° 19:57:15 10° 333° (NNW) 1,652 5.6 -14.5°
Sets 19:59:52 0° 353° (N) 2,540 6.3 -14.9°
